Vertical_Velocity
-1 -1 -1 -1 -1 -1 -1 -1 -1 -1 -0 -0 -1 -0 0 1 1 1 0 0 -0 -1 -1 -1 -1 -1 0 1 3 3 2 0 -2 -2 -2 -2 -3 -4 -4 -3 -3 -2 -2 -1 -0 0 1 1 1 1 1 0 0 0 0 0 0 0 -0 0 0 1 1 1 0 0 1 2 1
-1 -1 -1 -1 -1 -1 -0 -0 -0 -0 -0 0 0 1 1 1 0 -0 -1 -1 -2 -2 -2 -1 -1 -1 -1 0 1 1 0 -1 -2 -1 -1 -2 -3 -3 -3 -2 -2 -1 -0 -0 -0 -0 -0 -0 0 -0 -1 -2 -1 -2 -2 -2 -1 -1 -2 -2 -1 0 1 1 -0 -0 0 0 -0
-1 -1 -1 -1 -1 -0 -0 -1 -1 -1 -0 -0 0 1 0 -1 -1 -1 -1 -2 -2 -1 -1 -1 -1 -1 -1 -0 -0 -0 -1 -1 -1 -1 -1 -1 -1 -1 -0 -0 0 1 1 0 -0 -1 -1 -1 -1 -2 -2 -3 -2 -2 -2 -3 -1 -1 -1 -2 -1 0 0 -0 -1 -1 -1 -1 -1
0 0 -0 -0 -0 -1 -1 -2 -2 -2 -1 -1 0 0 -0 -1 -0 0 -0 -1 -0 0 0 0 -0 -1 -2 -2 -1 -1 -0 -1 -1 -0 -0 0 1 1 1 1 1 0 -0 -1 -1 -2 -2 -2 -2 -2 -2 -2 -1 -1 -2 -2 -0 0 0 -0 1 1 1 0 -0 -0 0 -1 -1
0 0 0 -1 -1 -2 -3 -3 -2 -2 -2 -1 -0 -0 -0 -0 1 1 1 0 0 0 1 1 0 -1 -2 -1 -0 0 0 0 1 1 1 0 0 0 -0 -1 -1 -2 -2 -2 -2 -2 -2 -1 -1 -1 -1 -1 -0 -0 -1 -0 1 1 0 0 1 1 1 1 0 0 1 -0 -1
-0 -0 -1 -2 -2 -3 -3 -2 -2 -2 -1 -0 0 0 0 1 1 1 1 -0 0 1 2 2 1 -0 -1 0 1 1 1 1 1 1 1 -0 -1 -1 -2 -2 -3 -3 -3 -3 -2 -1 -1 -1 -0 -1 -1 -1 -1 -1 -0 1 1 0 0 0 -1 0 1 1 0 1 1 0 -0
-1 -1 -1 -2 -2 -2 -2 -1 -1 -0 0 1 1 1 1 1 2 2 1 1 2 3 3 3 2 1 1 1 2 2 1 1 1 1 1 0 -1 -2 -2 -3 -3 -3 -3 -2 -1 -1 -1 -0 0 -0 -1 -0 -0 -1 -0 2 1 1 0 -0 -1 -0 1 1 0 1 2 1 1
0 -0 -0 -1 -1 -0 0 0 1 1 2 2 2 2 2 2 2 2 2 3 3 4 3 3 3 2 2 1 1 1 1 1 1 1 1 1 -0 -1 -2 -2 -2 -2 -1 -1 -1 -1 -1 -0 1 0 -0 0 1 1 1 2 1 0 -0 -1 -1 -1 1 1 1 1 1 1 1
1 1 1 1 1 1 1 2 2 2 2 2 2 2 2 3 2 2 2 3 2 2 2 2 2 1 1 0 0 0 0 0 0 -0 -0 0 0 -0 -1 -1 -1 -1 -1 -1 0 0 1 1 1 1 1 1 2 1 1 2 1 -0 -1 -1 -1 -1 -0 0 1 1 1 1 1
1 1 2 2 2 2 2 2 2 2 2 2 2 2 2 2 2 1 1 1 1 1 1 1 1 1 1 -0 -0 0 0 0 -0 -1 -1 -1 -1 -1 -1 -1 -1 -1 -0 -0 1 1 2 2 1 1 0 1 2 1 0 1 1 0 -0 -0 1 0 -0 -1 1 1 1 1 1
1 1 2 2 2 2 2 2 2 2 2 2 2 1 2 1 1 0 0 0 1 1 1 1 2 1 0 -0 -0 -0 -0 -0 -0 -1 -2 -2 -2 -2 -2 -2 -1 -0 0 0 1 1 2 1 1 0 -0 0 1 1 0 0 1 1 0 -0 0 0 -0 -1 -1 -0 0 0 1
1 1 1 1 1 1 1 1 1 1 1 1 1 1 1 1 0 0 0 1 1 1 1 1 1 1 0 0 0 -0 -0 -0 -1 -1 -2 -2 -3 -2 -1 -1 -0 0 1 0 1 1 1 0 0 -0 -0 -0 1 1 1 1 1 0 -0 -1 -1 -1 -1 -2 -2 -1 -1 -0 0
1 1 0 0 0 0 -0 -0 -0 0 0 1 1 1 1 0 -0 -0 0 0 0 0 0 0 0 0 -0 -0 -0 0 0 -0 -0 -0 -1 -1 -1 -1 -0 0 0 0 0 0 0 0 -0 -1 -0 -0 -0 0 1 2 2 1 0 -1 -1 -2 -2 -2 -2 -2 -2 -1 -1 -1 -1
1 0 0 0 -0 -0 -1 -1 -1 -1 -0 0 -0 0 0 -0 -1 -1 -0 -0 -0 -0 -0 -1 -1 -1 -1 -1 -1 -1 -0 0 1 0 0 -1 -0 0 0 0 0 0 0 -0 -0 -0 -0 -1 -1 -0 0 0 1 1 1 0 -1 -1 -2 -2 -2 -2 -2 -2 -1 -1 -1 -1 -2
0 0 -0 -0 -0 -1 -1 -1 -1 -1 -0 -0 -0 -0 -0 -1 -1 -1 -1 -1 -1 -1 -1 -1 -2 -2 -2 -1 -1 -1 -0 0 0 -0 -1 -1 -1 -0 0 0 0 0 0 -0 -0 0 0 -0 -0 -0 -0 -0 -1 -1 -1 -1 -1 -2 -2 -2 -2 -2 -2 -2 -1 -1 -1 -1 -2
-0 -0 -0 0 -0 -1 -1 -1 -0 -0 -0 -0 -0 -0 -0 -1 -1 -1 -1 -1 -1 -1 -1 -1 -2 -2 -2 -2 -1 -1 -1 -1 -1 -1 -1 -1 -1 -0 0 0 1 1 1 1 0 0 0 0 -0 -1 -1 -1 -1 -2 -2 -2 -1 -1 -1 -2 -1 -2 -2 -2 -2 -2 -1 -1 -2
0 -0 0 0 -0 -0 -0 -0 -0 0 0 -0 -0 -0 -0 -0 -0 -0 -1 -1 -1 -1 -1 -1 -2 -2 -2 -2 -1 -1 -1 -2 -2 -2 -1 -1 -1 -0 0 1 1 1 1 1 1 0 0 -0 -0 -1 -1 -2 -2 -2 -2 -2 -2 -2 -2 -2 -2 -2 -3 -3 -3 -2 -2 -2 -2
-0 -0 0 0 -0 -0 -0 0 0 0 0 0 0 0 0 0 0 -0 -0 -0 -1 -1 -1 -2 -1 -1 -1 -1 -1 -1 -1 -2 -2 -2 -1 -1 -0 0 1 1 1 1 1 0 0 -0 -1 -1 -1 -1 -2 -2 -2 -2 -2 -2 -2 -3 -3 -3 -3 -3 -3 -3 -2 -2 -2 -1 -1
-0 -0 0 0 0 0 0 0 0 0 0 0 0 0 0 0 0 -0 -1 -1 -1 -1 -1 -1 -1 -1 -0 -0 -1 -1 -1 -1 -1 -1 -1 0 1 1 1 1 1 0 -0 -0 -1 -1 -1 -2 -2 -2 -2 -2 -3 -3 -3 -3 -3 -3 -3 -3 -3 -4 -3 -3 -2 -1 -1 -1 -1
-0 -0 0 0 0 0 0 0 0 0 0 0 0 0 0 0 0 -0 -1 -1 -1 -1 -1 -1 -1 -1 -0 -0 -0 -1 -1 -1 -1 -1 -0 0 1 1 0 0 -0 -1 -1 -1 -1 -1 -2 -2 -2 -2 -2 -2 -3 -3 -3 -3 -3 -3 -2 -2 -3 -4 -4 -3 -2 -2 -1 -1 -1
-0 0 0 0 0 0 0 0 0 0 -0 -0 -0 -0 -0 -0 -0 -0 -1 -1 -1 -1 -1 -1 -1 -0 -0 -0 -0 -0 -0 -0 -0 0 0 1 1 0 -0 -1 -1 -1 -1 -1 -1 -2 -2 -2 -2 -2 -2 -2 -2 -2 -3 -3 -2 -2 -2 -2 -2 -4 -4 -3 -2 -2 -2 -2 -2
-0 -0 -0 -0 0 0 0 0 -0 -0 -0 -0 -0 -0 -0 -0 -1 -1 -1 -1 -1 -1 -1 -0 -0 0 0 0 0 0 -0 -0 0 0 1 1 0 -1 -1 -1 -1 -1 -1 -1 -1 -2 -2 -2 -2 -2 -2 -2 -2 -2 -2 -2 -2 -2 -1 -1 -2 -3 -4 -4 -3 -3 -3 -3 -2
-1 -1 -0 -0 -0 -0 -0 -0 -1 -1 -1 -1 -1 -1 -1 -1 -1 -1 -1 -1 -0 0 0 0 1 1 1 1 0 0 0 0 0 1 1 0 -1 -1 -2 -1 -1 -1 -1 -1 -1 -1 -1 -2 -2 -2 -2 -2 -2 -2 -2 -1 -1 -1 -1 -1 -2 -3 -4 -4 -4 -4 -3 -2 -1
-1 -1 -1 -1 -1 -1 -1 -1 -1 -1 -1 -1 -1 -1 -1 -1 -1 -1 -0 0 0 1 1 1 1 1 1 0 0 0 1 1 1 1 0 -1 -1 -2 -2 -2 -1 -1 -1 -1 -1 -1 -1 -2 -2 -2 -2 -2 -2 -1 -1 -0 0 0 -0 -1 -2 -3 -3 -4 -3 -2 -2 -1 -1
-1 -1 -1 -1 -1 -1 -1 -1 -1 -1 -1 -1 -1 -1 -0 -0 0 0 1 1 1 1 1 1 1 1 1 1 1 2 2 2 2 1 -0 -1 -2 -2 -2 -1 -1 -1 -1 -1 -1 -1 -2 -2 -2 -2 -2 -1 -1 -0 0 1 1 0 -0 -1 -2 -3 -3 -3 -2 -1 -1 -0 -0
-1 -0 -0 -1 -1 -1 -1 -0 -0 -1 -1 -0 -0 0 0 0 1 1 1 1 1 1 1 1 1 2 2 3 3 3 3 3 2 1 -1 -2 -2 -2 -1 -1 -1 -2 -2 -2 -2 -2 -2 -2 -2 -1 -1 -1 -0 0 0 0 -0 -0 -1 -2 -2 -2 -2 -2 -2 -2 -1 -1 -1
-0 -0 -0 -0 -1 -1 -0 -0 -0 -0 -0 0 0 0 0 1 1 1 1 1 1 1 1 2 2 2 2 3 3 2 2 2 1 -0 -1 -2 -1 -1 -1 -1 -1 -1 -1 -1 -1 -1 -1 -1 -1 -1 -1 -0 -1 -1 -1 -1 -2 -2 -2 -2 -2 -2 -2 -2 -2 -2 -3 -3 -3
-0 -0 -0 -0 -0 -0 -0 0 0 0 0 0 0 0 0 0 0 1 1 1 1 1 1 1 1 2 2 2 2 1 1 0 -1 -1 -2 -1 -1 -1 -1 -1 -1 -1 -1 -1 -1 -1 -1 -1 -0 -1 -1 -1 -1 -1 -2 -2 -2 -2 -2 -2 -2 -2 -2 -3 -3 -3 -4 -4 -5
0 0 0 0 0 0 0 0 0 0 0 0 0 0 1 1 1 1 1 1 1 1 1 1 1 1 1 1 1 0 -0 -1 -2 -2 -1 -1 -1 -0 -0 -0 -0 -0 -0 -0 -0 -0 -0 -0 -0 -1 -1 -1 -1 -2 -2 -2 -2 -2 -2 -3 -3 -3 -3 -3 -4 -4 -4 -4 -4
1 1 1 1 0 0 0 0 0 0 0 0 1 1 1 1 1 1 0 0 0 0 1 1 1 1 1 1 0 -1 -1 -2 -2 -1 -1 -0 0 0 0 0 0 0 -0 -0 -0 -0 -0 -1 -1 -1 -1 -2 -2 -2 -2 -3 -3 -3 -3 -3 -3 -3 -4 -4 -4 -4 -4 -4 -3
1 1 1 1 0 0 0 0 1 1 1 1 1 1 1 1 1 0 0 0 0 1 1 1 1 1 1 0 -0 -1 -1 -1 -1 -0 0 0 0 -0 -0 -0 -0 -0 -0 -0 -1 -1 -1 -1 -1 -2 -2 -2 -3 -3 -3 -3 -3 -3 -3 -3 -3 -3 -3 -3 -3 -3 -3 -3 -2
1 1 1 1 1 1 1 1 1 1 1 1 1 1 1 1 1 1 0 0 1 1 1 1 1 1 1 0 -0 -1 -1 -1 -0 0 0 0 -0 -0 -0 -0 -0 -0 -1 -1 -1 -1 -2 -2 -2 -3 -3 -3 -3 -3 -3 -3 -3 -3 -3 -3 -3 -3 -3 -2 -2 -2 -2 -2 -2
1 1 1 1 1 1 1 1 1 1 1 1 1 1 1 1 1 1 1 1 1 1 1 1 1 1 0 0 -0 -0 -0 0 0 0 -0 -0 -0 -0 -1 -1 -1 -1 -1 -1 -2 -2 -3 -3 -3 -3 -3 -3 -3 -3 -3 -3 -3 -2 -2 -2 -2 -2 -2 -2 -2 -2 -2 -1 -1
0 1 1 1 1 1 1 1 1 0 0 0 0 0 0 0 0 0 0 0 1 1 1 1 1 0 0 0 0 0 0 0 0 0 -0 -0 -0 -1 -1 -1 -1 -1 -2 -2 -3 -3 -3 -3 -3 -3 -3 -3 -3 -2 -2 -2 -2 -2 -2 -2 -2 -2 -2 -1 -1 -1 -1 -1 -1
0 0 0 0 0 0 0 0 -0 -0 -0 -0 -0 -0 0 0 0 0 0 0 0 0 0 0 0 0 0 1 1 1 1 1 0 -0 -0 -1 -1 -1 -1 -1 -1 -2 -2 -2 -3 -3 -3 -3 -3 -2 -2 -2 -2 -2 -2 -2 -2 -2 -2 -2 -2 -1 -1 -1 -1 -1 -1 -1 -1
0 0 -0 0 0 -0 -0 -1 -1 -1 -1 -1 -0 0 0 0 0 0 -0 -0 -0 -0 0 0 0 1 1 1 1 1 1 0 -0 -1 -1 -1 -1 -1 -1 -1 -1 -2 -2 -2 -3 -3 -3 -2 -2 -2 -2 -2 -2 -2 -2 -2 -2 -2 -2 -2 -1 -1 -1 -1 -1 -1 -1 -1 -1
-0 -0 -0 -0 -0 -1 -1 -1 -1 -1 -1 -0 0 0 0 -0 -0 -0 -0 -0 -0 -0 0 1 1 1 2 2 1 1 0 -1 -1 -1 -1 -1 -1 -1 -1 -1 -2 -2 -2 -3 -3 -3 -3 -3 -2 -2 -2 -2 -2 -2 -2 -2 -2 -2 -1 -1 -1 -1 -1 -1 -1 -1 -1 -1 -1
-0 -0 -0 -1 -1 -1 -1 -1 -1 -1 -0 -0 -0 -0 -0 -1 -1 -1 -0 -0 -0 0 1 1 2 2 2 1 0 -0 -1 -1 -1 -1 -1 -1 -1 -1 -1 -2 -2 -3 -3 -3 -3 -3 -3 -2 -2 -2 -2 -2 -1 -1 -1 -1 -1 -1 -1 -1 -1 -1 -1 -1 -1 -1 -1 -1 -2
-1 -1 -1 -1 -1 -2 -1 -1 -1 -1 -1 -0 -1 -1 -1 -1 -1 -0 0 0 0 1 1 1 1 1 1 0 -0 -0 -1 -1 -1 -1 -1 -1 -1 -2 -2 -2 -3 -3 -3 -3 -3 -3 -2 -2 -2 -1 -1 -1 -1 -1 -1 -1 -1 -0 -0 -1 -1 -1 -1 -1 -1 -2 -2 -2 -2
-1 -1 -1 -1 -2 -1 -1 -1 -1 -1 -1 -1 -1 -1 -1 -0 -0 0 1 1 1 1 1 1 1 0 0 -0 -0 -0 -0 -0 -1 -1 -1 -1 -2 -2 -2 -3 -3 -3 -3 -2 -2 -2 -1 -1 -1 -1 -1 -1 -0 -0 -0 -1 -0 -0 -0 -1 -1 -1 -1 -1 -2 -2 -2 -2 -2
-1 -1 -1 -1 -1 -1 -1 -1 -1 -1 -1 -1 -1 -0 -0 -0 0 1 1 1 1 1 1 0 0 0 0 0 -0 -0 -0 -0 -1 -1 -1 -2 -2 -2 -2 -2 -2 -2 -2 -1 -1 -1 -1 -0 -0 -0 -0 -0 -0 -0 -0 -0 -0 -0 -0 -0 0 -0 -0 -1 -1 -1 -1 -2 -2
Height
3110 3110 3110 3111 3111 3111 3111 3112 3112 3112 3111 3111 3111 3111 3111 3111 3111 3111 3112 3112 3112 3112 3112 3112 3112 3113 3113 3113 3113 3112 3112 3113 3113 3113 3113 3113 3112 3112 3112 3112 3113 3113 3113 3112 3112 3112 3111 3111 3110 3110 3109 3109 3108 3107 3107 3106 3106 3105 3105 3104 3104 3104 3103 3102 3101 3101 3100 3099 3098
3108 3108 3108 3109 3109 3109 3109 3109 3109 3109 3109 3109 3109 3109 3109 3109 3109 3109 3109 3109 3109 3109 3109 3109 3110 3110 3110 3110 3111 3111 3111 3111 3111 3111 3111 3111 3111 3110 3110 3110 3110 3110 3110 3110 3110 3109 3109 3109 3108 3107 3107 3106 3105 3104 3104 3103 3103 3103 3102 3101 3101 3100 3100 3099 3098 3098 3097 3096 3095
3106 3106 3106 3107 3107 3107 3107 3107 3107 3107 3107 3107 3108 3108 3108 3107 3107 3107 3107 3107 3107 3107 3107 3108 3108 3108 3109 3109 3109 3109 3109 3109 3109 3109 3109 3109 3109 3109 3109 3109 3109 3109 3108 3108 3107 3107 3106 3106 3105 3105 3104 3103 3103 3102 3101 3100 3100 3099 3099 3098 3098 3097 3096 3096 3095 3094 3094 3093 3092
3104 3104 3104 3104 3104 3105 3105 3104 3104 3105 3105 3105 3105 3106 3106 3106 3106 3106 3106 3106 3106 3106 3106 3106 3107 3107 3107 3107 3107 3107 3108 3108 3108 3108 3108 3108 3108 3108 3107 3107 3107 3106 3106 3105 3105 3104 3104 3103 3103 3102 3102 3101 3100 3099 3099 3098 3097 3096 3096 3095 3094 3094 3093 3092 3092 3091 3090 3089 3089
3101 3102 3102 3102 3102 3102 3102 3102 3102 3103 3103 3103 3104 3104 3104 3104 3104 3104 3104 3104 3104 3104 3105 3105 3105 3105 3105 3105 3105 3105 3105 3105 3106 3106 3106 3106 3105 3105 3105 3104 3104 3104 3103 3103 3102 3102 3101 3100 3100 3099 3099 3098 3097 3097 3096 3095 3094 3094 3093 3092 3091 3091 3090 3089 3089 3088 3087 3086 3086
3099 3099 3099 3100 3100 3100 3100 3100 3100 3101 3101 3102 3102 3102 3103 3103 3103 3103 3103 3103 3103 3103 3103 3103 3103 3103 3103 3103 3103 3103 3103 3103 3103 3103 3103 3103 3103 3102 3102 3101 3101 3100 3100 3099 3099 3099 3098 3098 3097 3097 3096 3095 3094 3094 3093 3092 3092 3091 3090 3089 3088 3088 3087 3086 3085 3085 3084 3083 3082
3096 3097 3097 3097 3098 3098 3098 3098 3099 3099 3099 3100 3100 3101 3101 3101 3102 3102 3102 3101 3102 3102 3102 3102 3101 3101 3101 3101 3101 3100 3100 3100 3100 3100 3100 3100 3100 3099 3099 3099 3098 3098 3097 3097 3096 3096 3095 3095 3094 3094 3093 3092 3092 3091 3090 3089 3089 3088 3087 3086 3085 3084 3084 3083 3082 3081 3081 3080 3079
3094 3094 3095 3095 3095 3096 3096 3096 3097 3098 3098 3099 3099 3099 3099 3099 3100 3100 3100 3100 3100 3099 3099 3099 3099 3099 3099 3099 3099 3098 3098 3098 3098 3098 3098 3098 3097 3097 3097 3096 3096 3095 3095 3094 3094 3093 3093 3092 3092 3091 3090 3089 3089 3088 3087 3086 3085 3084 3084 3083 3082 3081 3080 3079 3079 3078 3077 3077 3076
3092 3092 3093 3093 3094 3094 3094 3095 3095 3096 3096 3096 3097 3097 3097 3097 3098 3098 3097 3097 3097 3097 3097 3097 3097 3097 3097 3096 3096 3096 3096 3096 3095 3095 3095 3095 3095 3095 3094 3094 3094 3093 3093 3092 3092 3091 3090 3090 3089 3089 3088 3087 3086 3085 3084 3084 3083 3081 3080 3080 3079 3078 3077 3076 3076 3075 3074 3074 3073
3089 3090 3091 3091 3091 3092 3092 3093 3093 3094 3094 3094 3094 3095 3095 3095 3095 3095 3095 3095 3094 3094 3094 3095 3094 3094 3094 3094 3094 3094 3094 3093 3093 3093 3093 3093 3093 3092 3092 3092 3091 3091 3090 3090 3089 3089 3088 3088 3087 3086 3085 3084 3083 3082 3081 3080 3079 3079 3078 3077 3076 3075 3074 3073 3072 3072 3071 3070 3070
3087 3088 3088 3089 3089 3089 3090 3090 3090 3091 3091 3092 3092 3092 3092 3092 3092 3092 3092 3092 3092 3092 3092 3092 3092 3092 3092 3092 3092 3091 3091 3090 3090 3090 3090 3090 3090 3089 3089 3089 3089 3088 3088 3087 3087 3086 3085 3085 3084 3083 3082 3081 3081 3079 3079 3078 3077 3076 3075 3074 3073 3072 3071 3070 3069 3068 3068 3067 3067
3085 3085 3086 3086 3086 3087 3087 3087 3088 3088 3089 3089 3089 3089 3089 3089 3089 3089 3089 3090 3090 3090 3090 3090 3090 3090 3090 3089 3089 3089 3088 3088 3088 3088 3087 3087 3087 3087 3087 3086 3086 3086 3085 3085 3084 3084 3083 3082 3081 3080 3079 3079 3078 3077 3076 3075 3074 3073 3072 3071 3069 3069 3067 3066 3066 3065 3064 3064 3064
3083 3083 3083 3084 3084 3084 3084 3084 3085 3085 3086 3086 3086 3086 3087 3087 3087 3087 3087 3087 3087 3087 3087 3087 3087 3087 3087 3087 3087 3086 3086 3086 3086 3085 3085 3085 3084 3084 3084 3084 3084 3083 3083 3082 3081 3081 3080 3079 3079 3078 3077 3076 3075 3075 3074 3073 3071 3070 3069 3068 3067 3066 3064 3064 3063 3062 3061 3061 3060
3081 3081 3081 3081 3081 3081 3082 3082 3082 3083 3083 3083 3083 3084 3084 3084 3084 3084 3084 3084 3084 3084 3084 3084 3085 3085 3085 3084 3084 3084 3084 3084 3084 3083 3083 3083 3082 3082 3082 3081 3081 3080 3080 3079 3079 3078 3077 3077 3076 3075 3075 3074 3073 3072 3071 3070 3069 3068 3067 3066 3064 3063 3062 3061 3060 3059 3059 3058 3058
3079 3079 3079 3079 3079 3079 3079 3079 3080 3080 3080 3080 3081 3081 3081 3081 3081 3081 3081 3081 3081 3081 3082 3082 3082 3082 3082 3082 3082 3082 3082 3082 3081 3081 3081 3080 3080 3080 3079 3079 3078 3078 3077 3077 3076 3075 3075 3074 3074 3073 3072 3072 3071 3070 3069 3068 3067 3066 3065 3064 3062 3061 3059 3058 3057 3057 3056 3055 3055
3076 3077 3077 3077 3077 3077 3077 3077 3078 3078 3078 3078 3078 3078 3078 3079 3079 3079 3079 3079 3079 3079 3079 3079 3079 3080 3080 3080 3079 3079 3079 3079 3079 3079 3079 3078 3078 3077 3077 3076 3076 3075 3075 3074 3074 3073 3073 3072 3072 3071 3070 3069 3069 3068 3067 3066 3065 3064 3063 3062 3060 3059 3057 3056 3055 3054 3054 3053 3053
3074 3074 3075 3075 3075 3075 3075 3075 3075 3076 3076 3076 3076 3076 3076 3076 3076 3076 3076 3076 3077 3077 3077 3077 3077 3077 3077 3077 3077 3077 3077 3077 3077 3076 3076 3076 3075 3075 3074 3074 3074 3073 3073 3072 3072 3071 3071 3070 3069 3069 3068 3067 3066 3065 3064 3064 3063 3062 3061 3059 3058 3057 3055 3054 3053 3052 3052 3051 3050
3073 3073 3073 3073 3073 3073 3073 3073 3074 3074 3074 3074 3074 3074 3074 3074 3074 3074 3074 3074 3074 3074 3075 3075 3075 3075 3075 3075 3075 3075 3074 3074 3074 3074 3074 3074 3073 3073 3072 3072 3071 3071 3070 3070 3070 3069 3069 3068 3067 3067 3066 3065 3064 3063 3063 3062 3061 3060 3059 3058 3056 3055 3054 3053 3051 3051 3050 3049 3049
3071 3071 3071 3071 3071 3071 3071 3071 3071 3071 3071 3071 3072 3072 3072 3072 3072 3072 3072 3072 3072 3072 3073 3073 3073 3073 3073 3073 3073 3073 3073 3072 3072 3072 3072 3071 3071 3071 3070 3070 3069 3069 3069 3068 3068 3067 3067 3066 3065 3064 3064 3063 3062 3061 3060 3059 3059 3058 3057 3056 3055 3054 3052 3051 3050 3049 3048 3047 3047
3069 3069 3069 3069 3069 3069 3069 3069 3069 3069 3069 3069 3069 3070 3070 3070 3070 3070 3070 3070 3070 3070 3070 3071 3071 3071 3071 3071 3071 3070 3070 3070 3070 3070 3069 3069 3069 3069 3068 3068 3067 3067 3066 3066 3065 3065 3064 3064 3063 3062 3062 3061 3060 3059 3059 3058 3057 3056 3055 3054 3053 3052 3050 3049 3048 3047 3046 3045 3044
3067 3067 3067 3067 3068 3068 3068 3068 3068 3068 3068 3068 3068 3068 3068 3068 3068 3068 3069 3069 3069 3069 3069 3069 3069 3069 3069 3069 3069 3069 3068 3068 3068 3068 3068 3067 3067 3067 3066 3066 3065 3065 3064 3064 3064 3063 3063 3062 3061 3060 3060 3059 3058 3057 3056 3056 3055 3054 3053 3052 3051 3050 3049 3047 3046 3045 3044 3044 3043
3065 3065 3066 3066 3066 3066 3066 3066 3066 3066 3066 3066 3066 3066 3066 3066 3066 3066 3066 3066 3066 3066 3066 3066 3066 3066 3066 3066 3066 3066 3066 3066 3066 3066 3065 3065 3065 3065 3064 3064 3064 3063 3063 3062 3062 3061 3061 3060 3059 3059 3058 3057 3056 3055 3055 3054 3053 3052 3051 3050 3049 3048 3047 3045 3044 3044 3043 3042 3041
3064 3064 3064 3064 3064 3064 3064 3064 3064 3064 3064 3064 3064 3064 3064 3064 3064 3064 3064 3064 3064 3064 3064 3064 3064 3064 3064 3064 3064 3064 3064 3064 3064 3064 3064 3064 3063 3063 3063 3062 3062 3061 3061 3061 3060 3059 3059 3058 3058 3057 3056 3055 3054 3054 3053 3052 3051 3051 3050 3049 3048 3047 3045 3044 3043 3042 3041 3040 3039
3063 3063 3063 3063 3063 3063 3063 3062 3062 3062 3062 3062 3062 3062 3062 3062 3062 3062 3062 3062 3062 3062 3062 3062 3062 3062 3063 3063 3063 3063 3063 3063 3063 3062 3062 3062 3062 3061 3061 3060 3060 3059 3059 3059 3058 3058 3057 3057 3056 3055 3054 3054 3053 3052 3051 3051 3050 3049 3048 3047 3046 3045 3044 3042 3041 3040 3039 3038 3037
3061 3061 3061 3061 3061 3061 3061 3061 3060 3060 3060 3060 3060 3060 3060 3060 3060 3060 3060 3060 3060 3060 3060 3060 3060 3061 3061 3061 3061 3061 3061 3061 3061 3061 3060 3060 3060 3059 3059 3059 3058 3058 3057 3057 3057 3056 3055 3055 3054 3054 3053 3052 3051 3051 3050 3049 3049 3048 3047 3046 3044 3043 3042 3041 3039 3039 3037 3036 3035
3060 3060 3060 3059 3059 3059 3059 3059 3059 3059 3059 3058 3058 3058 3058 3058 3058 3058 3058 3058 3058 3058 3059 3059 3059 3059 3059 3060 3060 3060 3060 3060 3059 3059 3059 3059 3059 3058 3058 3057 3057 3056 3056 3055 3055 3054 3054 3053 3053 3052 3051 3051 3050 3049 3049 3048 3047 3046 3045 3044 3043 3041 3040 3039 3038 3037 3035 3034 3033
3059 3059 3058 3058 3058 3058 3058 3057 3057 3057 3057 3057 3057 3056 3056 3056 3056 3056 3056 3056 3056 3056 3057 3057 3057 3058 3058 3058 3058 3058 3058 3058 3058 3058 3058 3057 3057 3057 3056 3056 3055 3055 3054 3054 3054 3053 3052 3052 3051 3050 3050 3049 3048 3048 3047 3046 3045 3044 3043 3042 3041 3040 3039 3037 3036 3035 3034 3032 3031
3057 3057 3057 3057 3056 3056 3056 3056 3056 3055 3055 3055 3055 3055 3055 3054 3054 3054 3054 3054 3054 3054 3055 3055 3055 3055 3056 3056 3056 3056 3056 3056 3056 3056 3056 3056 3055 3055 3055 3054 3054 3054 3053 3052 3052 3051 3051 3050 3049 3049 3048 3047 3047 3046 3045 3044 3043 3042 3041 3040 3039 3038 3037 3036 3034 3033 3032 3031 3030
3056 3056 3055 3055 3055 3055 3054 3054 3054 3054 3054 3054 3053 3053 3053 3053 3053 3053 3052 3052 3052 3052 3053 3053 3053 3054 3054 3054 3054 3054 3054 3054 3054 3054 3054 3054 3054 3054 3053 3053 3053 3052 3051 3051 3050 3050 3049 3049 3048 3047 3047 3046 3045 3044 3044 3043 3042 3041 3040 3039 3038 3037 3036 3034 3033 3032 3031 3030 3029
3055 3054 3054 3054 3054 3053 3053 3053 3052 3052 3052 3052 3052 3051 3051 3051 3051 3051 3051 3050 3050 3051 3051 3051 3051 3051 3052 3052 3052 3052 3052 3053 3053 3053 3053 3053 3053 3052 3052 3052 3051 3051 3050 3049 3049 3049 3048 3047 3047 3046 3045 3044 3044 3043 3042 3041 3041 3040 3039 3038 3037 3035 3034 3033 3032 3031 3030 3029 3029
3053 3053 3053 3052 3052 3051 3051 3051 3051 3050 3050 3050 3050 3050 3049 3049 3049 3049 3049 3049 3049 3049 3049 3049 3049 3049 3050 3050 3050 3051 3051 3051 3052 3052 3052 3051 3051 3051 3050 3050 3050 3049 3049 3048 3048 3047 3047 3046 3045 3045 3044 3044 3043 3042 3041 3040 3039 3039 3038 3037 3035 3034 3033 3032 3031 3030 3029 3029 3028
3052 3051 3051 3050 3050 3050 3049 3049 3049 3049 3049 3049 3048 3048 3048 3048 3048 3048 3048 3048 3048 3048 3048 3048 3048 3048 3049 3049 3049 3049 3050 3050 3050 3050 3050 3050 3050 3049 3049 3049 3049 3048 3048 3047 3047 3046 3046 3045 3045 3044 3043 3043 3042 3041 3040 3039 3038 3037 3036 3035 3034 3033 3032 3031 3030 3029 3029 3028 3027
3050 3049 3049 3049 3048 3048 3048 3048 3047 3047 3047 3047 3047 3047 3047 3047 3047 3047 3046 3046 3046 3046 3046 3046 3047 3047 3047 3048 3048 3049 3049 3049 3049 3049 3049 3049 3049 3049 3049 3048 3048 3048 3047 3047 3046 3046 3045 3044 3044 3043 3042 3042 3041 3040 3039 3038 3037 3036 3035 3034 3033 3032 3031 3030 3029 3028 3027 3027 3026
3048 3048 3048 3047 3047 3047 3046 3046 3046 3046 3046 3046 3046 3046 3046 3045 3045 3045 3045 3045 3045 3045 3045 3046 3046 3046 3047 3047 3048 3048 3048 3048 3048 3049 3049 3049 3049 3048 3048 3048 3048 3047 3047 3046 3046 3045 3044 3044 3043 3042 3041 3040 3040 3039 3038 3037 3036 3035 3034 3033 3032 3031 3030 3029 3028 3027 3026 3025 3024
3047 3047 3046 3046 3046 3045 3045 3045 3045 3045 3045 3045 3045 3045 3044 3044 3044 3044 3044 3044 3044 3044 3045 3045 3045 3046 3046 3047 3047 3047 3048 3048 3048 3048 3048 3048 3048 3048 3048 3047 3047 3046 3046 3045 3045 3044 3044 3043 3042 3041 3040 3040 3039 3038 3037 3036 3035 3034 3033 3032 3031 3030 3029 3028 3027 3026 3025 3024 3023
3046 3045 3045 3045 3045 3044 3044 3044 3044 3044 3044 3044 3044 3044 3044 3044 3044 3044 3044 3044 3044 3044 3044 3045 3045 3046 3046 3046 3047 3047 3047 3048 3048 3048 3048 3048 3048 3048 3047 3047 3046 3046 3045 3045 3044 3043 3043 3042 3041 3040 3040 3039 3038 3037 3036 3035 3034 3033 3032 3031 3030 3029 3028 3027 3025 3024 3024 3022 3021
3045 3045 3044 3044 3044 3044 3044 3044 3044 3043 3043 3043 3043 3043 3043 3043 3044 3044 3044 3044 3044 3044 3045 3045 3045 3046 3046 3047 3047 3047 3048 3048 3048 3048 3048 3048 3047 3047 3047 3046 3046 3045 3044 3044 3044 3043 3042 3041 3040 3040 3039 3038 3037 3036 3035 3034 3033 3032 3031 3029 3029 3027 3026 3025 3024 3023 3022 3021 3019
3044 3044 3044 3044 3044 3043 3043 3043 3043 3043 3043 3043 3043 3043 3043 3044 3044 3044 3044 3044 3044 3045 3045 3045 3046 3046 3047 3047 3047 3048 3048 3048 3048 3048 3048 3047 3047 3046 3046 3046 3045 3045 3044 3044 3043 3042 3041 3040 3040 3039 3038 3037 3036 3035 3034 3033 3032 3031 3029 3028 3027 3026 3025 3024 3023 3022 3020 3019 3018
3044 3044 3044 3044 3044 3043 3043 3043 3044 3044 3044 3044 3044 3044 3044 3044 3044 3044 3044 3045 3045 3045 3046 3046 3046 3047 3047 3047 3048 3048 3048 3048 3048 3047 3047 3047 3046 3046 3046 3045 3045 3044 3044 3043 3042 3041 3040 3039 3039 3038 3037 3036 3035 3034 3033 3032 3031 3029 3028 3027 3026 3025 3024 3023 3021 3020 3019 3018 3017
3044 3044 3044 3044 3044 3044 3044 3044 3044 3044 3044 3044 3044 3044 3044 3044 3045 3045 3045 3046 3046 3046 3046 3047 3047 3047 3047 3048 3048 3048 3048 3048 3047 3047 3047 3047 3046 3046 3045 3045 3044 3044 3043 3042 3041 3040 3039 3039 3038 3037 3036 3035 3034 3033 3032 3031 3029 3028 3027 3026 3025 3024 3023 3022 3020 3019 3018 3017 3015
3044 3044 3044 3044 3044 3044 3044 3044 3044 3044 3044 3045 3045 3045 3045 3045 3045 3046 3046 3046 3046 3047 3047 3047 3047 3048 3048 3048 3048 3048 3048 3047 3047 3047 3047 3046 3046 3045 3045 3044 3044 3043 3042 3041 3040 3039 3039 3038 3037 3036 3035 3034 3033 3032 3031 3029 3029 3027 3026 3025 3024 3023 3022 3020 3019 3018 3017 3015 3014